Location: Titusville
(28.6120°N, 80.8080°W)
Time: 19:45:34
(UTC-04:00)

ISS - Visible Passes

Search period start: 18 October 2017 00:00
Search period end: 28 October 2017 00:00
Orbit: 401 x 408 km, 51.6° (Epoch: 19 October)

Date Brightness Start Highest point End Pass type
(mag) Time Alt. Az. Time Alt. Az. Time Alt. Az.
18 Oct -3.8 19:13:17 10° NW 19:16:34 89° SW 19:19:51 10° SE visible
19 Oct -0.5 19:59:17 10° WSW 20:00:26 11° SW 20:01:36 10° SW visible
27 Oct -1.1 06:26:55 10° S 06:29:24 20° SE 06:31:54 10° ENE visible
